CW7625 Weather Reports


Display with metric or nautical units.
time (UTC)temp
F
wind
direction
speed
MPH
gust
MPH
rain 1hr
in
rain 24hr
in
rain mn
in
humidity
%
barometer
mb
20260906184103 101 228 1.0 6.0 0.00 0.00 0.00 43 1010.5
20260906183103 100 231 1.0 8.0 0.00 0.00 0.00 47 1010.5
20260906182103 100 88 2.0 8.0 0.00 0.00 0.00 46 1010.7
20260906181103 99 59 7.0 9.0 0.00 0.00 0.00 47 1010.7
20260906175103 99 61 1.0 7.0 0.00 0.00 0.00 49 1011.1
20260906174103 99 219 3.0 6.0 0.00 0.00 0.00 49 1011.4
20260906173103 99 273 2.0 7.0 0.00 0.00 0.00 49 1011.6
20260906172103 98 275 2.0 4.0 0.00 0.00 0.00 53 1011.7
20260906171103 97 205 1.0 6.0 0.00 0.00 0.00 52 1011.8
20260906170103 96 94 3.0 7.0 0.00 0.00 0.00 53 1012.0
20260906165103 96 161 2.0 7.0 0.00 0.00 0.00 55 1012.3
20260906164103 96 71 1.0 4.0 0.00 0.00 0.00 56 1012.2
20260906163103 96 73 4.0 8.0 0.00 0.00 0.00 55 1012.3
20260906162103 94 49 1.0 6.0 0.00 0.00 0.00 58 1012.2
20260906161103 94 230 2.0 5.0 0.00 0.00 0.00 60 1012.3
20260906155103 92 320 0.0 8.0 0.00 0.00 0.00 61 1012.3
20260906153103 91 286 0.0 0.0 0.00 0.00 0.00 64 1012.3
20260906152103 90 301 0.0 0.0 0.00 0.00 0.00 66 1012.2
20260906151103 89 207 0.0 0.0 0.00 0.00 0.00 67 1012.2
20260906150103 89 294 0.0 0.0 0.00 0.00 0.00 68 1012.3
20260906145103 88 211 0.0 0.0 0.00 0.00 0.00 70 1012.3
20260906144103 87 294 0.0 0.0 0.00 0.00 0.00 71 1012.4
20260906143103 86 229 0.0 0.0 0.00 0.00 0.00 72 1012.3
20260906142103 86 229 0.0 0.0 0.00 0.00 0.00 76 1012.5
20260906135103 81 223 0.0 0.0 0.00 0.00 0.00 84 1012.7
20260906134103 80 223 0.0 0.0 0.00 0.00 0.00 86 1012.7
20260906133103 79 223 0.0 0.0 0.00 0.00 0.00 87 1012.7
20260906131103 77 223 0.0 0.0 0.00 0.00 0.00 89 1012.7
20260906130103 76 223 0.0 0.0 0.00 0.00 0.00 90 1012.7
20260906125103 75 223 0.0 0.0 0.00 0.00 0.00 90 1012.6
20260906124103 75 223 0.0 0.0 0.00 0.00 0.00 91 1012.6
20260906122103 74 223 0.0 0.0 0.00 0.00 0.00 91 1012.4
20260906121103 74 223 0.0 0.0 0.00 0.00 0.00 91 1012.3
20260906115103 73 223 0.0 0.0 0.00 0.00 0.00 91 1012.0
20260906114104 73 223 0.0 0.0 0.00 0.00 0.00 91 1011.9
20260906112103 73 223 0.0 0.0 0.00 0.00 0.00 91 1011.6
20260906111103 73 223 0.0 0.0 0.00 0.00 0.00 91 1011.5
20260906110103 73 223 0.0 0.0 0.00 0.00 0.00 90 1011.4
20260906105103 73 223 0.0 0.0 0.00 0.00 0.00 90 1011.4
20260906103104 73 223 0.0 0.0 0.00 0.00 0.00 91 1011.1
20260906102103 73 223 0.0 0.0 0.00 0.00 0.00 90 1011.0
20260906100103 73 223 0.0 0.0 0.00 0.00 0.00 90 1010.9
20260906095103 73 223 0.0 0.0 0.00 0.00 0.00 90 1010.8
20260906094103 74 223 0.0 0.0 0.00 0.00 0.00 90 1010.8
20260906092103 74 223 0.0 0.0 0.00 0.00 0.00 90 1010.8
20260906091104 74 223 0.0 0.0 0.00 0.00 0.00 90 1010.8
20260906090103 74 223 0.0 0.0 0.00 0.00 0.00 90 1010.8
20260906085104 74 223 0.0 0.0 0.00 0.00 0.00 90 1010.7
20260906084103 74 223 0.0 0.0 0.00 0.00 0.00 90 1010.6
20260906083103 74 223 0.0 0.0 0.00 0.00 0.00 89 1010.6
20260906082104 74 223 0.0 0.0 0.00 0.00 0.00 89 1010.6
20260906080104 75 223 0.0 0.0 0.00 0.00 0.00 89 1010.7
20260906073104 75 223 0.0 0.0 0.00 0.00 0.00 89 1010.8
20260906072103 75 223 0.0 0.0 0.00 0.00 0.00 88 1010.8
20260906071103 75 223 0.0 0.0 0.00 0.00 0.00 88 1010.8
20260906065104 76 223 0.0 0.0 0.00 0.00 0.00 87 1010.8
20260906064104 76 223 0.0 0.0 0.00 0.00 0.00 87 1010.9
20260906063104 77 223 0.0 0.0 0.00 0.00 0.00 87 1010.9
20260906062103 77 223 0.0 0.0 0.00 0.00 0.00 86 1010.7
20260906061104 77 223 0.0 0.0 0.00 0.00 0.00 86 1010.7
20260906060104 78 223 0.0 0.0 0.00 0.00 0.00 85 1010.7
20260906055104 78 223 0.0 0.0 0.00 0.00 0.00 85 1010.7
20260906054104 78 223 0.0 0.0 0.00 0.00 0.00 84 1010.7
20260906053104 79 223 0.0 0.0 0.00 0.00 0.00 83 1010.9
20260906052104 79 223 0.0 0.0 0.00 0.00 0.00 82 1010.8
20260906051104 80 223 0.0 0.0 0.00 0.00 0.00 82 1010.7
20260906050104 80 223 0.0 0.0 0.00 0.00 0.00 80 1010.6
20260906045104 81 223 0.0 0.0 0.00 0.00 0.00 80 1010.6
20260906043104 82 223 0.0 0.0 0.00 0.00 0.00 78 1010.4
20260906041104 82 223 0.0 0.0 0.00 0.00 0.00 77 1010.7
20260906040104 83 223 0.0 0.0 0.00 0.00 0.00 76 1010.7
20260906034104 83 223 0.0 0.0 0.00 0.00 0.00 75 1010.7
20260906033104 84 223 0.0 0.0 0.00 0.00 0.00 74 1010.7
20260906032104 84 223 0.0 0.0 0.00 0.00 0.00 73 1010.8
20260906031104 85 223 0.0 1.0 0.00 0.00 0.00 72 1010.9
20260906030104 85 223 0.0 3.0 0.00 0.00 0.00 71 1010.8
20260906025104 85 223 1.0 2.0 0.00 0.00 0.00 71 1010.5
20260906024104 85 223 0.0 3.0 0.00 0.00 0.00 71 1010.7
20260906023104 85 223 0.0 0.0 0.00 0.00 0.00 70 1010.7
20260906021104 87 223 0.0 1.0 0.00 0.00 0.00 66 1010.1
20260906020104 88 223 0.0 0.0 0.00 0.00 0.00 65 1010.1
20260906015104 89 223 0.0 3.0 0.00 0.00 0.00 63 1009.8
20260906014104 89 223 0.0 3.0 0.00 0.00 0.00 62 1009.7
20260906013104 89 223 0.0 6.0 0.00 0.00 0.00 61 1009.6
20260906012104 89 187 0.0 2.0 0.00 0.00 0.00 61 1009.6
20260906011104 90 187 1.0 1.0 0.00 0.00 0.00 61 1009.4
20260906005104 92 187 0.0 4.0 0.00 0.00 0.00 58 1009.1
20260906003104 93 217 0.0 5.0 0.00 0.00 0.00 55 1009.0
20260906002105 93 260 2.0 5.0 0.00 0.00 0.00 54 1008.8
20260906001104 93 58 0.0 1.0 0.00 0.00 0.00 53 1008.5
20260906000104 94 58 0.0 0.0 0.00 0.00 0.00 51 1008.6
20260905235104 95 58 0.0 0.0 0.00 0.00 0.00 50 1008.4
20260905234104 96 58 0.0 2.0 0.00 0.00 0.00 48 1008.5
20260905233104 97 59 1.0 4.0 0.00 0.00 0.00 46 1008.3
20260905232104 98 275 2.0 9.0 0.00 0.00 0.00 45 1008.4
20260905231105 99 107 3.0 3.0 0.00 0.00 0.00 46 1008.3
20260905230104 99 22 3.0 5.0 0.00 0.00 0.00 45 1008.2
20260905225104 100 21 2.0 7.0 0.00 0.00 0.00 43 1008.1
20260905224104 100 344 2.0 8.0 0.00 0.00 0.00 42 1008.0
20260905223105 100 55 5.0 8.0 0.00 0.00 0.00 41 1008.0
20260905222104 100 223 1.0 3.0 0.00 0.00 0.00 43 1008.0
20260905221105 100 224 1.0 5.0 0.00 0.00 0.00 41 1008.0
20260905220104 99 85 3.0 5.0 0.00 0.00 0.00 43 1008.0
20260905215104 99 225 1.0 7.0 0.00 0.00 0.00 43 1008.1
20260905214104 98 227 2.0 5.0 0.00 0.00 0.00 45 1008.1
20260905213104 98 113 4.0 8.0 0.00 0.00 0.00 46 1008.2
20260905212105 98 63 0.0 1.0 0.00 0.00 0.00 49 1008.3
20260905210105 99 90 3.0 6.0 0.00 0.00 0.00 44 1008.7
20260905205104 100 44 0.0 4.0 0.00 0.00 0.00 44 1008.7
20260905204104 100 38 2.0 4.0 0.00 0.00 0.00 47 1008.8
20260905203104 100 227 0.0 7.0 0.00 0.00 0.00 46 1008.9
20260905202104 100 302 5.0 5.0 0.00 0.00 0.00 45 1009.0
20260905200105 99 98 1.0 9.0 0.00 0.00 0.00 43 1009.5
20260905195104 99 34 1.0 4.0 0.00 0.00 0.00 47 1009.6
20260905194105 99 67 1.0 7.0 0.00 0.00 0.00 46 1009.7
20260905193104 99 25 3.0 6.0 0.00 0.00 0.00 47 1009.8
20260905192105 99 58 2.0 7.0 0.00 0.00 0.00 48 1010.0
20260905191104 98 105 7.0 8.0 0.00 0.00 0.00 48 1010.4
20260905190105 98 254 0.0 6.0 0.00 0.00 0.00 48 1010.5